Location: Gradaro
(45.0833°N, 10.8833°E)
Time: 16:44:53
(UTC+00:00)

SJ 16-02 - Visible Passes

Search period start: 15 April 2021 00:00
Search period end: 25 April 2021 00:00
Orbit: 605 x 617 km, 75.0° (Epoch: 15 April)

Date Brightness Start Highest point End Pass type
(mag) Time Alt. Az. Time Alt. Az. Time Alt. Az.
15 Apr 4.1 00:34:15 12° E 00:34:15 12° E 00:35:14 10° ENE visible
15 Apr 1.2 02:11:14 67° W 02:11:25 69° WNW 02:15:51 10° NNE visible
16 Apr 3.5 00:48:59 21° E 00:48:59 21° E 00:51:27 10° NE visible
16 Apr 2.0 02:25:57 37° WNW 02:26:21 38° WNW 02:30:30 10° N visible
17 Apr 2.7 01:03:41 34° ENE 01:03:41 34° ENE 01:06:50 10° NE visible
17 Apr 2.8 02:40:40 21° WNW 02:41:24 22° WNW 02:44:55 10° N visible
18 Apr 2.0 01:18:21 54° NE 01:18:21 54° NE 01:21:52 10° NNE visible
18 Apr 3.4 02:55:20 12° WNW 02:56:35 14° NW 02:58:52 10° NNW visible
18 Apr 4.1 23:56:01 12° ENE 23:56:01 12° ENE 23:56:35 10° ENE visible
19 Apr 1.9 01:33:00 51° NNW 01:33:00 51° NNW 01:36:41 10° NNE visible
20 Apr 3.6 00:10:38 19° ENE 00:10:38 19° ENE 00:12:28 10° NE visible
20 Apr 2.4 01:47:37 33° NW 01:47:37 33° NW 01:51:18 10° N visible
21 Apr 3.0 00:25:14 30° NE 00:25:14 30° NE 00:27:45 10° NNE visible
21 Apr 3.1 02:02:12 20° WNW 02:02:19 20° WNW 02:05:37 10° N visible
22 Apr 2.5 00:39:48 41° NNE 00:39:48 41° NNE 00:42:44 10° NNE visible
22 Apr 3.6 02:16:46 12° WNW 02:17:31 12° NW 02:19:20 10° NNW visible
22 Apr 4.1 23:17:23 11° ENE 23:17:23 11° ENE 23:17:47 10° ENE visible
23 Apr 2.5 00:54:21 39° NNW 00:54:21 39° NNW 00:57:30 10° N visible
23 Apr 3.7 23:31:54 19° NE 23:31:54 19° NE 23:33:27 10° NE visible
24 Apr 2.9 01:08:52 28° NW 01:08:52 28° NW 01:12:03 10° N visible
24 Apr 3.2 23:46:24 28° NE 23:46:24 28° NE 23:48:39 10° NNE visible
